OneWeb SL0569

operational
NORAD ID: 55148 Int'l Des: 2023-004 Owner: ONEWEBN Country: UK Constellation: oneweb
LEOCIRCULARPOLARONEWEB_TYPE

关于 OneWeb SL0569

正在加载描述...

实时位置

正在加载3D地球...

即将过境

高度历史

Altitude vs Time

uPlot chart will show altitude changes over time

两行轨道根数

1 55148U 23004J 25305.61800283 .00000351 00000-0 92569-3 0 9998
2 55148 87.9030 5.4342 0002849 101.4401 258.7049 13.13471644140301
Epoch: Nov 1, 2025 • Age: 20 hours

当前状态

高度 1240.3 km
速度 7.23 km/s
星下点 -81.48°S, 151.33°E
发射日期 Jan 10, 2023
运行时间 2.8 years
类型 internet

技术详情

分类 Payload
质量 148.00 kg
干质量 140.00 kg
总质量 148.00 kg
长度 1.30 m
直径 1.00 m
跨度 5.00 m
形状 Trapezoid+2 pan
制造商 ONEWUS
平台类型 ARROW
阶段状态 In Orbit
所有者/国家 ONEWEBN/UK

大型星座

Loading constellations...